Weather in Vyrubovo

Russia / Tambov Oblast     53°06′00″N   40°56′34″E
temp.,
°C
wind,
m/s
gust,
m/s
humid.,
%
clouds,
%
prec.,
mm/h
press.,
hPa
HPBL,
m
28 september, tue
tue2800:00+8ne6987100 1.2 1019612
03:00+7ne4789100 1.4 1021601
06:00+6ne5888100 0.1 1023730
09:00+5ne5893100 0.2 1024878
12:00+6ne6778100 0.1 1026943
15:00+6ne5775100 0.1 1028815
18:00+6ne4874100 0.0 1029678
21:00+5ne22756 0.0 103022
29 september, wed
wed2900:00+3nne35835 0.0 103279
03:00+2nne358216 0.0 103275
06:00+2nne3783100 0.0 1033139
09:00+5nne476635 0.0 1033391
12:00+9ne45485 0.0 10331118
15:00+11nne45425 0.0 10321352
18:00+7nne34585 0.0 103256
21:00+5nne34645 0.0 103351
30 september, thu
thu3000:00+5ne2269100 0.0 103425
03:00+4nne22735 0.0 103416
06:00+3nne33805 0.0 103430
09:00+7ne34635 0.0 1035317
12:00+11ne33495 0.0 10351036
15:00+12nne234849 0.0 10341464
18:00+9nne22615 0.0 103411
21:00+7ne11675 0.0 103510
1 october, fri
fri100:00+7nw116988 0.0 103510
03:00+6nw228045 0.0 103515
06:00+7nw2378100 0.0 103586
09:00+10nnw2471100 0.0 1035213
12:00+12nw346173 0.0 1035587
15:00+14nnw335643 0.0 10341147
18:00+11nnw22695 0.0 103410
21:00+9nw127532 0.0 103510
2 october, sat
sat200:00+9nw227682 0.0 103536
03:00+9nw237490 0.0 103560
06:00+9nw2275100 0.0 103553
09:00+10nnw1270100 0.0 1035128
12:00+12w0062100 0.0 1035339
15:00+13ssw1158100 0.0 1034513
18:00+12s1164100 0.0 103412
21:00+11sse2268100 0.0 103446